Latest Coastal Weather Observations for Eucla

IDS60701

Issued at 9:31 pm CST Tuesday 27 September 2016 (issued every 10 minutes, with the page automatically refreshed every 10 minutes)

About coastal observations | Map of coastal stations | Coastal observations for SA | Marine services | Other Formats
Station Details ID: 011003 Name: EUCLA Lat: -31.68 Lon: 128.90 Height: 93.1 m
Data from the previous 72 hours. | See also: Recent months at Eucla
Date/Time
CST
Temp
°C
Wind Pressure Rain since
9am
mm
Weather Cloud Vis
km
Sea
Height
m
Swell
Dir  Spd
kts
Gust
kts
hPa Trend Height
m
Period
s
Dir
27/09:30pm 16.6 NNE 7 9 1005.2 - 0.0 - - - - - - -
27/09:00pm 17.5 NNE 7 10 1005.4 - 0.0 - - - - - - -
27/08:30pm 18.4 NNE 7 9 1005.7 - 0.0 - - - - - - -
27/08:00pm 18.8 NNE 7 9 1006.0 - 0.0 - - - - - - -
27/07:30pm 19.7 NNE 7 10 1006.2 - 0.0 - - - - - - -
27/07:00pm 18.4 N 6 8 1006.3 - 0.0 - - - - - - -
27/06:30pm 20.3 ENE 7 10 1006.4 - 0.0 - - - - - - -
27/06:00pm 22.0 NE 7 12 1006.7 - 0.0 - - - - - - -
27/05:30pm 24.6 NNW 9 16 1006.9 - 0.0 - - - - - - -
27/05:00pm 23.6 WNW 7 14 1007.2 - 0.0 - - - - - - -
27/04:30pm 23.7 WNW 5 10 1007.6 - 0.0 Fine Clear 40 - - - -
27/04:00pm 25.2 NNW 7 17 1008.6 - 0.0 - - - - - - -
27/03:30pm 26.0 NNW 9 16 1009.0 - 0.0 - - - - - - -
27/03:00pm 25.7 N 6 17 1009.6 - 0.0 - - - - - - -
27/02:30pm 26.0 NNW 8 15 1010.3 - 0.0 - - - - - - -
27/02:00pm 24.4 NNW 7 17 1010.9 - 0.0 - - - - - - -
27/01:30pm 24.8 NNW 9 15 1011.9 - 0.0 - - - - - - -
27/01:00pm 24.7 NW 7 14 1012.6 - 0.0 - - - - - - -
27/12:30pm 23.7 NNW 7 12 1013.4 - 0.0 - - - - - - -
27/12:00pm 23.2 NNW 8 15 1014.0 - 0.0 - - - - - - -
27/11:30am 22.6 N 9 15 1014.7 - 0.0 - - - - - - -
27/11:00am 21.0 NNW 10 15 1015.1 - 0.0 - - - - - - -
27/10:30am 19.9 N 12 18 1015.4 - 0.0 Fine Clear 40 - - - -
27/10:00am 18.4 N 12 16 1015.7 - 0.0 - - - - - - -
27/09:30am 17.1 N 12 18 1015.9 - 0.0 - - - - - - -
27/09:00am 15.1 N 13 18 1016.0 - 0.0 - - - - - - -
27/08:30am 12.7 N 12 18 1016.0 - 0.0 - - - - - - -
27/08:00am 10.4 N 11 17 1016.0 - 0.0 - - - - - - -
27/07:30am 8.0 N 11 16 1016.0 - 0.0 - - - - - - -
27/07:00am 6.4 N 10 14 1015.9 - 0.0 - - - - - - -
27/06:30am 6.3 N 10 15 1015.7 - 0.0 - - - - - - -
27/06:00am 6.5 N 10 13 1015.6 - 0.0 - - - - - - -
27/05:30am 6.4 N 9 12 1015.6 - 0.0 - - - - - - -
27/05:00am 6.1 N 9 12 1015.2 - 0.0 - - - - - - -
27/04:30am 5.7 N 9 12 1015.1 - 0.0 - - - - - - -
27/04:00am 5.7 N 9 13 1015.2 - 0.0 - - - - - - -
27/03:30am 5.8 N 9 11 1015.5 - 0.0 - - - - - - -
27/03:00am 5.3 N 7 9 1015.9 - 0.0 - - - - - - -
27/02:30am 4.8 N 8 9 1016.0 - 0.0 - - - - - - -
27/02:00am 4.7 N 7 9 1016.5 - 0.0 - - - - - - -
27/01:30am 4.6 N 7 7 1016.9 - 0.0 - - - - - - -
27/01:00am 5.7 NNE 6 7 1017.1 - 0.0 - - - - - - -
27/12:30am 5.9 NNE 7 7 1017.5 - 0.0 - - - - - - -
27/12:00am 5.8 NNE 6 7 1017.8 - 0.0 - - - - - - -
 
Date/Time
CST
Temp
°C
Wind Pressure Rain since
9am
mm
Weather Cloud Vis
km
Sea
Height
m
Swell
Dir  Spd
kts
Gust
kts
hPa Trend Height
m
Period
s
Dir
26/11:30pm 5.3 NNE 6 7 1017.9 - 0.0 - - - - - - -
26/11:00pm 5.6 NNE 5 6 1018.1 - 0.0 - - - - - - -
26/10:30pm 6.3 NNE 5 6 1018.1 - 0.0 - - - - - - -
26/10:00pm 7.5 ENE 5 6 1018.2 - 0.0 - - - - - - -
26/09:30pm 8.0 ESE 5 5 1018.2 - 0.0 - - - - - - -
26/09:00pm 8.7 SE 4 5 1018.0 - 0.0 - - - - - - -
26/08:30pm 9.5 SE 4 5 1017.6 - 0.0 - - - - - - -
26/08:00pm 10.5 SE 4 6 1017.4 - 0.0 - - - - - - -
26/07:30pm 10.9 SSE 5 6 1017.2 - 0.0 - - - - - - -
26/07:00pm 11.6 S 5 7 1017.1 - 0.0 - - - - - - -
26/06:30pm 12.9 SSE 7 10 1017.1 - 0.0 - - - - - - -
26/06:00pm 13.8 SSE 7 12 1016.9 - 0.0 - - - - - - -
26/05:30pm 14.4 SSE 7 11 1016.6 - 0.0 - - - - - - -
26/05:00pm 14.7 SSE 8 11 1016.5 - 0.0 - - - - - - -
26/04:30pm 15.8 SSE 8 12 1016.3 - 0.0 Fine Clear 40 - - - -
26/04:00pm 15.6 SSE 9 15 1016.3 - 0.0 - - - - - - -
26/03:30pm 15.5 S 9 16 1016.5 - 0.0 - - - - - - -
26/03:00pm 16.1 SSE 9 15 1016.5 - 0.0 - - - - - - -
26/02:30pm 16.3 SSW 9 15 1016.6 - 0.0 - - - - - - -
26/02:00pm 16.3 SSE 10 15 1017.3 - 0.0 - - - - - - -
26/01:30pm 16.5 SSE 8 14 1017.5 - 0.0 - - - - - - -
26/01:00pm 17.0 S 9 14 1017.7 - 0.0 - - - - - - -
26/12:30pm 16.3 S 8 14 1017.8 - 0.0 - - - - - - -
26/12:00pm 15.5 S 8 14 1018.1 - 0.0 - - - - - - -
26/11:30am 16.1 S 7 14 1018.4 - 0.0 - - - - - - -
26/11:00am 15.2 S 8 14 1018.6 - 0.0 - - - - - - -
26/10:30am 14.2 S 8 14 1018.7 - 0.0 Haze Partly cloudy 25 - - - -
26/10:00am 15.0 SSW 8 14 1018.7 - 0.0 - - - - - - -
26/09:30am 14.7 SSW 8 12 1018.4 - 0.0 - - - - - - -
26/09:00am 14.5 S 8 12 1018.2 - 0.0 - - - - - - -
26/08:30am 12.8 SW 5 9 1017.9 - 0.0 - - - - - - -
26/08:00am 12.3 SW 4 6 1017.5 - 0.0 - - - - - - -
26/07:30am 11.0 SW 5 7 1017.3 - 0.0 - - - - - - -
26/07:00am 10.0 SSW 5 8 1017.0 - 0.0 - - - - - - -
26/06:30am 10.2 SSW 6 9 1016.6 - 0.0 - - - - - - -
26/06:00am 10.7 SSW 6 9 1016.3 - 0.0 - - - - - - -
26/05:30am 10.8 SSW 7 10 1016.0 - 0.0 - - - - - - -
26/05:00am 11.2 SSW 6 9 1015.8 - 0.0 - - - - - - -
26/04:30am 11.9 SSW 10 15 1015.6 - 0.0 - - - - - - -
26/04:00am 11.9 S 9 14 1015.6 - 0.0 - - - - - - -
26/03:30am 11.7 SSW 9 16 1015.5 - 0.0 - - - - - - -
26/03:00am 12.0 S 11 17 1015.5 - 0.0 - - - - - - -
26/02:30am 12.4 SSW 12 18 1015.5 - 0.0 - - - - - - -
26/02:00am 12.4 SSW 12 18 1015.7 - 0.0 - - - - - - -
26/01:30am 12.6 SSW 13 21 1015.7 - 0.0 - - - - - - -
26/01:00am 12.9 SSW 13 19 1015.6 - 0.0 - - - - - - -
26/12:30am 12.6 SSW 14 26 1015.3 - 0.0 - - - - - - -
26/12:00am 12.9 SSW 13 20 1015.2 - 0.0 - - - - - - -
 
Date/Time
CST
Temp
°C
Wind Pressure Rain since
9am
mm
Weather Cloud Vis
km
Sea
Height
m
Swell
Dir  Spd
kts
Gust
kts
hPa Trend Height
m
Period
s
Dir
25/11:30pm 13.3 SSW 15 20 1015.0 - 0.0 - - - - - - -
25/11:00pm 13.6 SSW 14 22 1014.9 - 0.0 - - - - - - -
25/10:30pm 13.9 SSW 14 21 1014.8 - 0.0 - - - - - - -
25/10:00pm 13.9 SSW 11 17 1014.3 - 0.0 - - - - - - -
25/09:30pm 13.5 SW 10 16 1013.9 - 0.0 - - - - - - -
25/09:00pm 13.4 SSW 6 8 1013.1 - 0.0 - - - - - - -
25/08:30pm 14.0 SW 6 9 1012.5 - 0.0 - - - - - - -
25/08:00pm 15.7 WSW 5 13 1011.3 - 0.0 - - - - - - -
25/07:30pm 16.6 E 5 5 1010.4 - 0.0 - - - - - - -
25/07:00pm 17.6 E 5 6 1009.9 - 0.0 - - - - - - -
25/06:30pm 18.6 E 6 8 1009.8 - 0.0 - - - - - - -
25/06:00pm 18.1 SE 5 7 1009.8 - 0.0 - - - - - - -
25/05:30pm 18.7 SE 6 11 1009.7 - 0.0 - - - - - - -
25/05:00pm 19.8 ESE 7 11 1009.5 - 0.0 - - - - - - -
25/04:30pm 21.8 W 7 15 1009.5 - 0.0 Fine Partly cloudy 40 - - - -
25/04:00pm 23.7 WNW 6 9 1009.6 - 0.0 - - - - - - -
25/03:30pm 23.7 WNW 9 14 1009.9 - 0.0 - - - - - - -
25/03:00pm 24.7 WNW 10 16 1010.3 - 0.0 - - - - - - -
25/02:30pm 24.1 NNW 9 15 1010.8 - 0.0 - - - - - - -
25/02:00pm 23.2 N 10 20 1011.4 - 0.0 - - - - - - -
25/01:30pm 23.3 NNW 10 15 1012.0 - 0.0 - - - - - - -
25/01:00pm 22.6 N 9 18 1012.7 - 0.0 - - - - - - -
25/12:30pm 21.4 N 11 18 1013.3 - 0.0 - - - - - - -
25/12:00pm 21.3 N 12 20 1013.7 - 0.0 - - - - - - -
25/11:30am 19.5 N 13 19 1014.3 - 0.0 - - - - - - -
25/11:00am 19.0 N 14 20 1014.6 - 0.0 - - - - - - -
25/10:30am 17.4 N 14 20 1015.0 - 1.4 Fine Clear 40 - - - -
25/10:00am 16.3 NNE 15 21 1015.1 - 1.4 - - - - - - -
25/09:30am 15.4 NNE 14 20 1015.4 - 1.4 - - - - - - -
25/09:00am 13.4 N 12 16 1015.6 - 1.4 - - - - - - -
25/08:30am 11.0 N 14 20 1015.7 - 1.4 - - - - - - -
25/08:00am 8.9 N 12 17 1015.5 - 1.4 - - - - - - -
25/07:30am 7.0 N 10 14 1015.4 - 1.4 - - - - - - -
25/07:00am 5.4 N 12 16 1015.4 - 1.4 - - - - - - -
25/06:30am 4.7 N 11 14 1015.3 - 1.4 - - - - - - -
25/06:00am 4.8 N 11 15 1015.0 - 1.4 - - - - - - -
25/05:30am 4.1 NNE 9 14 1014.9 - 1.4 - - - - - - -
25/05:00am 4.5 NNE 8 11 1014.9 - 1.4 - - - - - - -
25/04:30am 4.2 NNE 8 9 1014.9 - 1.4 - - - - - - -
25/04:00am 3.7 NNE 7 9 1015.0 - 1.4 - - - - - - -
25/03:30am 2.7 N 7 8 1015.1 - 1.4 - - - - - - -
25/03:00am 3.2 N 7 8 1015.4 - 1.4 - - - - - - -
25/02:30am 3.3 NNE 7 7 1015.6 - 1.4 - - - - - - -
25/02:00am 3.7 N 6 7 1016.0 - 1.4 - - - - - - -
25/01:30am 4.1 NNE 6 7 1016.2 - 1.4 - - - - - - -
25/01:00am 4.1 NNE 6 7 1016.4 - 1.4 - - - - - - -
25/12:30am 3.7 N 6 6 1016.7 - 1.4 - - - - - - -
25/12:00am 4.6 N 5 7 1017.2 - 1.4 - - - - - - -
 
Date/Time
CST
Temp
°C
Wind Pressure Rain since
9am
mm
Weather Cloud Vis
km
Sea
Height
m
Swell
Dir  Spd
kts
Gust
kts
hPa Trend Height
m
Period
s
Dir
24/11:30pm 4.0 N 5 6 1017.2 - 1.4 - - - - - - -

Other Formats:

Comma delimited format used in spreadsheet applications
http://www.bom.gov.au/fwo/IDS60701/IDS60701.94647.axf

JavaScript Object Notation format (JSON) in row-major order
http://www.bom.gov.au/fwo/IDS60701/IDS60701.94647.json